Regional Weather Roundup
Issued by NWS

Home | Current Version | Previous Version | Graphics & Text | Print | Product List | Glossary On
Versions: 1 2 3 4 5 6 7 8 9 10 11 12 13 14 15 16 17 18 19 20 21 22 23 24 25 26 27 28 29 30 31 32 33 34 35 36 37 38 39 40 41 42 43 44 45 46 47 48 49 50
000
ASUS43 KMKX 281411
RWRWI

WISCONSIN REGIONAL WEATHER ROUNDUP
NATIONAL WEATHER SERVICE MILWAUKEE/SULLIVAN WI
900 AM CDT WED JUN 28 2017

NOTE: "FAIR" INDICATES FEW OR NO CLOUDS BELOW 12,000 FEET WITH NO
SIGNIFICANT WEATHER AND/OR OBSTRUCTIONS TO VISIBILITY.

WIZ001-002-006>008-014>016-023>028-281500-
NORTHWEST WISCONSIN

CITY           SKY/WX    TMP DP  RH WIND       PRES   REMARKS
SUPERIOR ARPT  NOT AVBL
ASHLAND        CLOUDY    62  52  69 VRB3      29.70F
HAYWARD        CLOUDY    61  50  67 SE9       29.70F
SIREN          DRIZZLE   58  54  85 SE8       29.66F
CUMBERLAND     RAIN      59  52  77 SE9       29.69R
RICE LAKE      CLOUDY    61  52  71 SE9       29.71R
CHETEK         LGT RAIN  61  54  77 SE7       29.70S
LADYSMITH      CLOUDY    64  52  67 SE10      29.73F
EAU CLAIRE     LGT RAIN  62  59  90 S14       29.69F
MENOMONIE      RAIN      63  61  92 S13       29.69R
NEW RICHMOND   DRIZZLE   62  60  94 S5        29.65S
OSCEOLA        RAIN      62  62 100 SE10      29.66F
$$

WIZ003>005-009-010-017-018-281500-
NORTH CENTRAL WISCONSIN

CITY           SKY/WX    TMP DP  RH WIND       PRES   REMARKS
MANITOWISH WTR CLOUDY    59  54  84 SE9       29.78F
ARBOR VITAE    LGT RAIN  60  52  75 S9G18     29.79F
WOODRUFF       LGT RAIN  60  52  75 S9G18     29.79F
RHINELANDER    CLOUDY    56  55  97 SE8       29.82F
EAGLE RIVER    CLOUDY    60  49  66 S8        29.82S
LAND O LAKES   CLOUDY    60  51  72 SE7       29.83F
PHILLIPS       CLOUDY    60  52  76 S8        29.76F
TOMAHAWK       NOT AVBL
MEDFORD        CLOUDY    57  53  88 SE8       29.76F
MERRILL        CLOUDY    59  52  76 S5        29.82F THUNDER
$$

WIZ029-030-035-036-043>047-281500-
CENTRAL WISCONSIN

CITY           SKY/WX    TMP DP  RH WIND       PRES   REMARKS
WAUSAU         TSTM      57  56  96 S12       29.81F FOG
MOSINEE        CLOUDY    57  55  94 S12       29.85R
MARSHFIELD     CLOUDY    60  54  80 SE13      29.77F
STEVENS POINT  CLOUDY    57  56  95 SE9       29.84F
WAUPACA        CLOUDY    64  55  71 S8        29.86S
WAUTOMA        LGT RAIN  61  57  88 S5        29.85F
WISC RAPIDS    CLOUDY    60  56  86 S8        29.82F
CAMP DOUGLAS   LGT RAIN  61  59  94 S9        29.76F
$$

WIZ011>013-019>022-031-037>040-048>050-281500-
NORTHEAST WISCONSIN

CITY           SKY/WX    TMP DP  RH WIND       PRES   REMARKS
ANTIGO         CLOUDY    56  52  87 S10       29.85S
SHAWANO        CLOUDY    64  54  68 S6        29.84F
OCONTO         CLOUDY    65  53  65 SE9       29.86F
STURGEON BAY     N/A     63  52  67 S14       29.90F
GREEN BAY      CLOUDY    65  54  67 S12       29.87F
MANITOWOC      CLOUDY    62  52  69 S14       29.92F
APPLETON       PTSUNNY   64  50  59 S13       29.86F
CLINTONVILLE   CLOUDY    63  50  63 S9        29.86S
OSHKOSH        CLOUDY    65  52  62 S14G26    29.87F
$$

WIZ032>034-041-042-053>061-281500-
SOUTHWEST WISCONSIN

CITY           SKY/WX    TMP DP  RH WIND       PRES   REMARKS
LA CROSSE      LGT RAIN  69  65  86 S18G26    29.73S
SPARTA         CLOUDY    63  61  94 S16G22    29.73F
VIROQUA        CLOUDY    63  63 100 S13G20    29.77F
BOSCOBEL       CLOUDY    65  62  90 S9        29.81F
PRAIRIE DU CHI CLOUDY    64  63  96 SE13G20   29.75F
PLATTEVILLE    CLOUDY    62  62 100 SE15      29.85F
$$

WIZ056-057-062-063-064-067-068-281500-
SOUTH CENTRAL WISCONSIN

CITY           SKY/WX    TMP DP  RH WIND       PRES   REMARKS
REEDSBURG      RAIN      60  60 100 SE9G21    29.79F
BARABOO/DELLS  HVY RAIN  60  57  92 S10       29.84F
LONE ROCK      LGT RAIN  62  59  90 E12       29.82F
MINERAL POINT  RAIN      61  61 100 SE13      29.87F
MADISON        LGT RAIN  63  56  78 S13       29.90S
MIDDLETON      CLOUDY    62  59  89 SW14      29.90S
WATERTOWN      NOT AVBL
MONROE         RAIN      61  59  94 SW16      29.94R
JANESVILLE     LGT RAIN  66  54  63 S17       29.94R
$$

WIZ051-052-058>065-066-070>072-281500-
SOUTHEAST WISCONSIN

CITY           SKY/WX    TMP DP  RH WIND       PRES   REMARKS
MILWAUKEE      CLOUDY    67  52  58 S14       29.95F
WAUKESHA       MOSUNNY   63  50  63 S8        29.95F
MILWAUKEE/TIMM PTSUNNY   64  48  55 S12G17    29.95F
RACINE         CLOUDY    66  51  58 S10       29.97F
KENOSHA        CLOUDY    66  51  58 S14       29.97F
FOND DU LAC    TSTM      63  54  72 S9        29.89F
SHEBOYGAN      CLOUDY    64  53  67 S12       29.92F
WEST BEND      CLOUDY    64  54  68 S12G17    29.91F
JUNEAU         DRIZZLE   62  53  73 S12       29.92R
$$

LSZ147-162-281500-
LAKE SUPERIOR

STATION/POSITION TIME  TEMP    WIND        PRES    WAVE
                       AIR SEA DIR/SP/G            HT/PER
                 (UTC) (F)     (DEG/KT/KT) (MB)    (FT/S)
W MID LAKE BUOY  1350   48 39  110/  6/  6 1007.6F   1
DEVILS ISLAND    1400   54      60/  7/ 10 1006.5F
SAXON HARBOR     1340   65     180/  6/ 12 1005.8F
$$

LMZ867-665-643>646-281500-
LAKE MICHIGAN

STATION/POSITION TIME  TEMP    WIND        PRES    WAVE
                       AIR SEA DIR/SP/G            HT/PER
                 (UTC) (F)     (DEG/KT/KT) (MB)    (FT/S)
CHAMBERS ISLAND  1340   66     150/  5/ 14 1012.5R
S GREEN BAY BUOY 1400   67     170/ 17/ 21 1011.1
N MID LAKE BUOY  1350   58 56  180/ 14/ 17 1014.3R   3/ 5
NORTHPORT PIER   1330   64     170/  8/ 13 1013.2R
KEWAUNEE LAKESHO 1348   53     180/  7/ 10 1012.8F
SHEBOYGAN LAKESH 1400   56     180/ 17/ 18 1012.9F
PORT WASHINGTON  1330   58     200/  5/ 10 1014.9S
ATWATER BUOY     1339   60     170/ 14/ 16 1014.0F
MILWAUKEE LAKESH 1350   64     190/ 11/ 13   N/A
S MID LAKE BUOY  1350   64 61  160/ 17/ 21 1015.8R   3/ 4
KENOSHA   LAKESH 1400   62     170/ 13/ 16 1014.6
$$

TC  - TEMPERATURE IN CELSIUS
VSB - VISIBILITY IN STATUTE MILES
WCI - WIND CHILL INDEX
HX  - HEAT INDEX





USA.gov is the U.S. government's official web portal to all federal, state and local government web resources and services.